Temperature
19 20 20 20 17 14 16 17 17 18 18 18 19 18 16 16 17 18 18 18 17 17 16 15 14 14 13 13 13 12 12 12 12 11 11 11 11 11 11 11 11 11 10 10 10 11 10 11 11
20 20 20 19 15 15 16 17 17 18 19 19 19 18 18 18 18 19 18 18 17 17 16 15 14 14 13 13 13 13 12 12 12 11 11 11 11 10 10 11 11 11 11 11 11 11 11 11 11
20 20 20 15 15 15 18 18 17 18 19 19 18 19 19 19 19 19 19 18 17 16 16 15 14 14 13 13 13 12 12 12 11 11 11 11 11 10 10 11 11 11 11 11 11 11 11 11 11
20 20 19 15 17 16 17 18 17 18 19 19 19 18 19 19 19 19 19 18 17 16 16 15 14 14 13 13 13 12 12 12 11 11 11 11 11 11 11 11 11 11 11 11 11 11 11 11 11
20 20 15 15 17 17 17 18 18 18 18 19 19 18 19 19 19 19 18 18 17 16 16 15 14 14 13 13 13 12 12 12 11 11 11 11 11 11 11 11 11 11 11 11 11 11 11 11 11
20 16 14 16 17 17 17 18 18 18 18 18 19 18 19 19 19 19 18 18 17 16 15 15 14 14 13 13 13 12 12 11 11 11 11 11 11 11 11 11 10 10 10 10 10 10 10 10 10
18 14 15 16 16 18 18 19 18 18 18 19 20 18 19 19 19 18 18 17 16 16 15 15 14 13 13 13 13 12 12 11 11 11 11 11 11 11 11 10 10 10 10 10 10 10 10 10 10
19 14 16 15 16 18 18 19 19 19 19 20 20 19 19 20 19 18 17 17 16 15 15 14 14 13 13 13 13 12 12 11 11 11 11 11 11 10 10 10 10 10 10 10 10 10 10 10 10
19 14 15 16 17 18 18 19 19 19 19 19 20 20 20 20 19 18 17 16 16 15 15 14 14 14 13 13 12 12 12 11 11 11 11 11 10 10 10 10 10 10 10 10 10 10 10 10 10
17 14 17 17 17 18 18 19 19 19 18 18 19 20 20 19 19 18 18 17 17 16 15 14 14 14 13 13 12 12 12 11 11 11 11 10 10 10 10 10 10 10 10 10 10 10 10 10 10
16 15 17 17 18 18 18 19 19 18 17 19 20 20 20 19 19 19 19 18 18 17 16 15 14 14 13 13 13 12 12 11 11 11 10 10 10 10 10 10 10 10 10 10 10 9 9 10 10
16 16 17 18 19 19 18 19 18 18 19 20 20 20 20 19 19 19 19 19 18 17 16 15 14 14 13 13 13 12 12 12 11 11 11 10 10 10 10 10 10 10 10 10 9 9 9 9 10
16 16 17 18 18 18 18 18 18 19 20 20 20 19 19 19 19 19 19 18 18 17 16 16 15 14 14 13 13 12 12 12 11 11 11 10 10 10 10 10 10 9 9 9 9 9 9 9 10
16 16 17 17 17 17 17 17 16 19 19 19 19 19 19 19 19 19 18 18 18 17 17 16 15 14 14 13 13 13 12 12 11 11 11 10 10 10 10 10 9 9 9 9 9 9 9 9 9
16 16 16 16 16 17 16 15 15 19 19 19 19 19 19 19 19 19 19 19 18 18 17 16 16 15 14 13 13 13 12 12 11 11 11 10 10 10 10 10 10 9 9 9 9 9 9 9 9
15 15 15 15 15 16 16 15 15 18 18 18 19 19 19 19 19 19 19 18 18 18 17 17 16 15 14 14 13 13 12 12 12 11 11 11 10 10 10 10 9 9 9 9 9 9 9 9 9
14 13 14 15 15 15 15 14 15 18 17 17 18 19 19 19 19 19 19 18 18 18 17 17 16 15 15 14 13 13 12 12 12 11 11 11 10 10 10 10 9 9 9 9 9 9 9 9 9
13 14 14 14 15 14 14 13 14 17 16 16 17 18 18 19 19 19 19 19 18 18 17 17 16 16 15 14 13 12 12 12 12 11 11 11 10 10 10 10 9 9 9 9 9 9 9 9 9
14 14 14 14 14 14 13 13 14 15 14 14 16 17 18 19 19 19 19 19 18 18 17 17 16 16 15 14 13 13 12 12 12 12 11 11 11 10 10 10 9 9 9 9 9 9 9 9 9
14 13 13 13 14 14 12 12 13 13 14 15 16 17 18 19 19 19 19 19 19 18 18 17 17 16 15 15 14 13 13 12 12 12 11 11 11 10 10 10 10 9 9 9 9 9 9 9 9
13 13 13 14 13 13 12 13 14 14 14 15 16 17 18 19 19 19 19 19 19 18 18 18 17 16 16 15 14 13 12 12 12 11 11 11 11 10 10 10 10 9 9 9 9 9 9 9 8
13 13 13 14 13 12 13 12 13 13 13 14 16 17 18 19 19 19 19 19 19 19 18 18 17 16 16 15 14 13 13 12 13 12 12 11 11 10 10 10 10 9 9 9 9 9 8 8 8
13 13 13 13 13 12 11 11 12 12 14 15 15 17 18 19 19 19 19 19 19 19 18 17 17 16 16 15 14 13 13 13 12 12 12 11 11 11 10 10 10 9 9 9 9 8 8 8 8
13 12 11 10 10 11 11 11 12 12 14 15 15 17 18 19 19 19 19 19 19 18 18 17 17 16 15 15 14 13 13 13 12 12 12 11 11 11 10 10 10 9 9 9 9 8 8 8 8
12 12 11 12 11 11 11 10 11 13 13 14 15 17 18 19 19 19 19 19 19 18 18 17 17 16 16 15 14 14 13 13 12 12 12 11 11 11 10 10 9 9 9 9 8 8 8 8 7
12 12 12 12 12 11 10 10 12 13 13 14 15 17 18 18 19 19 19 19 19 18 18 17 17 16 16 15 14 14 13 12 12 12 11 11 11 11 10 10 9 9 9 9 8 8 8 7 7
11 11 11 11 11 11 10 10 11 12 13 13 14 16 17 18 19 19 19 19 18 18 18 17 17 16 16 15 14 14 13 12 12 12 11 11 11 10 10 10 9 9 9 8 8 8 8 7 7
12 10 10 10 11 11 11 10 12 14 14 14 13 15 17 18 19 19 19 18 18 18 18 17 17 16 16 15 14 14 13 13 12 11 11 11 10 10 10 9 9 9 8 8 8 8 7 7 6
10 10 10 10 10 10 11 12 12 13 14 13 13 16 17 18 18 18 18 18 18 18 17 17 16 16 15 15 14 14 13 12 12 11 11 11 10 10 9 9 9 8 8 8 7 7 7 6 6
11 10 10 10 10 8 9 12 13 12 12 12 14 16 17 18 18 18 18 18 18 17 17 17 16 16 15 15 14 14 13 12 12 11 11 10 10 9 9 9 8 8 8 7 7 7 6 6 6
Wind_Speed
6 2 3 4 6 5 0 3 2 2 2 1 3 6 9 7 5 3 1 9 9 10 15 17 17 15 15 14 13 12 12 11 10 10 10 10 10 11 11 12 12 12 13 13 13 13 14 14 14
2 2 5 5 5 2 4 4 4 4 4 5 4 5 5 3 2 4 4 8 10 13 15 16 17 16 15 15 14 13 12 11 10 10 9 9 9 10 10 11 11 11 11 12 12 12 12 12 12
1 4 5 5 4 5 5 4 5 1 4 4 3 2 4 4 4 6 6 10 10 12 15 16 17 16 16 15 14 13 12 11 10 10 9 9 9 9 10 10 10 10 10 11 11 11 11 11 11
3 5 5 5 2 5 5 4 4 4 3 2 4 3 1 1 4 6 8 11 11 10 15 17 18 17 16 15 15 14 13 12 10 10 9 9 9 9 9 9 9 9 9 9 9 10 10 10 10
4 5 5 2 3 3 4 3 4 4 4 2 5 5 2 2 3 8 12 13 13 9 14 17 18 17 16 15 14 14 13 12 11 10 9 9 8 8 8 8 7 7 8 8 8 8 9 9 9
5 5 4 2 4 4 3 2 4 3 3 3 6 6 3 0 5 8 12 11 11 10 13 15 18 17 17 16 15 15 13 12 11 10 9 8 8 7 7 6 6 6 6 6 7 7 8 8 8
5 4 4 3 3 4 2 3 5 5 4 6 8 6 3 2 5 8 9 9 9 10 11 12 15 17 17 16 15 15 14 13 12 10 9 8 7 6 6 5 4 4 5 5 6 7 7 7 7
5 5 2 2 3 4 2 2 3 6 5 3 8 7 6 5 8 9 8 7 7 7 8 9 12 14 15 16 16 15 14 13 12 11 9 8 7 6 5 4 3 4 4 5 5 6 6 7 7
4 4 2 4 5 4 2 2 1 2 4 3 4 5 1 9 13 11 7 7 8 9 7 8 9 12 14 14 15 15 15 13 12 11 10 9 7 5 4 4 3 3 3 4 4 5 6 7 8
4 4 6 4 5 3 2 3 3 2 2 3 4 2 5 11 15 15 13 15 15 14 11 8 9 10 13 13 13 13 13 12 12 11 10 9 7 6 4 3 2 2 2 3 4 5 6 7 7
4 6 4 4 4 3 2 3 3 5 6 8 9 7 8 10 13 15 15 15 16 14 13 11 10 11 12 10 11 11 11 11 12 12 11 10 8 6 4 2 1 1 2 3 4 5 6 6 6
3 4 3 3 2 3 3 3 3 7 10 7 8 6 10 13 16 17 17 15 13 12 15 13 11 11 12 11 10 11 10 10 10 12 12 10 7 5 4 3 2 1 1 1 2 3 4 4 5
3 4 3 4 5 4 4 5 5 8 10 6 3 6 12 15 15 15 13 11 11 14 15 14 13 12 11 10 9 10 10 11 12 13 13 12 8 6 5 4 3 3 2 1 0 1 2 3 4
4 4 4 5 4 3 5 6 5 10 5 4 5 8 11 14 15 11 10 12 14 15 16 15 15 14 12 10 8 9 11 12 12 13 14 14 12 9 7 5 4 4 4 3 2 1 1 2 2
1 2 5 4 3 3 2 8 9 9 2 6 7 8 9 11 11 13 14 15 15 15 14 15 16 14 13 12 11 11 12 13 12 12 14 14 13 12 9 5 4 5 5 4 2 1 1 1 2
2 2 4 5 2 2 3 11 10 4 4 8 9 9 9 10 11 12 12 12 12 12 13 15 14 15 15 12 11 10 12 13 12 13 14 15 15 14 10 6 5 7 6 4 2 1 0 1 1
2 2 5 7 2 2 4 10 10 3 5 9 10 9 9 9 10 11 11 12 12 13 13 15 15 16 16 13 11 10 11 11 12 13 13 14 15 15 12 8 7 8 5 3 2 1 1 1 2
5 4 4 6 4 2 6 12 14 8 7 11 11 10 8 10 13 10 10 10 10 11 12 13 14 14 13 10 7 6 7 7 10 11 13 15 15 15 12 8 8 8 4 3 2 2 1 1 1
5 5 6 6 3 3 9 14 17 12 8 10 10 9 9 11 10 7 7 8 8 10 12 14 14 13 12 10 10 9 9 8 7 10 14 15 15 15 12 8 7 7 5 5 5 3 2 1 0
6 6 7 6 3 3 8 13 13 10 8 8 9 9 9 8 7 6 5 7 9 11 13 13 15 14 14 12 10 7 6 6 6 7 10 14 15 14 12 9 7 7 5 5 5 4 3 1 2
8 9 8 6 5 3 6 10 8 6 5 7 7 7 7 8 8 7 6 7 8 10 13 13 14 14 14 12 7 5 4 3 4 6 7 10 14 14 13 12 9 8 7 7 7 6 6 4 2
10 8 7 5 3 5 2 7 10 6 8 8 8 7 7 6 6 6 6 7 9 10 10 11 12 13 13 12 11 11 10 9 10 8 8 8 12 13 14 13 11 9 7 7 7 7 5 5 4
7 3 4 3 4 5 3 5 10 5 7 9 8 8 7 7 6 6 7 8 7 7 8 9 10 11 12 13 14 13 12 10 6 5 8 8 8 11 12 12 11 9 7 8 8 7 7 6 5
6 5 4 3 1 6 8 7 9 6 8 7 6 7 7 6 5 5 5 4 4 5 6 7 9 10 11 13 13 14 13 11 8 8 9 8 7 7 9 10 10 9 8 9 9 8 8 7 6
5 5 0 2 3 8 4 6 11 10 9 9 9 9 7 6 5 5 5 4 4 5 7 8 10 10 11 12 13 14 14 12 13 11 11 9 7 7 10 10 9 8 9 9 8 8 8 8 8
9 10 8 7 6 5 3 9 10 10 8 9 9 8 7 6 5 6 6 6 6 7 7 8 10 10 10 12 12 11 11 10 9 10 10 10 9 10 9 10 10 10 10 9 8 7 8 7 8
8 8 7 5 2 4 6 8 11 7 7 7 8 8 9 8 7 7 6 5 6 6 7 9 10 9 10 11 11 10 11 11 10 9 9 8 8 7 9 9 9 9 9 9 8 7 8 7 8
8 9 6 6 6 6 6 6 7 7 8 8 8 10 10 8 6 6 5 5 5 5 5 6 8 9 8 9 9 9 10 10 9 8 9 9 8 7 8 9 9 9 9 8 8 7 7 8 8
7 7 6 6 5 6 5 8 8 10 9 9 11 10 9 9 8 6 6 4 4 4 4 5 6 7 7 8 8 8 8 8 8 8 9 8 7 8 8 9 9 9 9 8 8 8 8 9 8
7 9 9 8 7 6 5 10 7 9 9 9 10 9 8 8 6 6 5 4 3 4 4 5 6 6 7 7 7 7 7 7 8 8 8 7 8 7 8 8 8 8 8 8 9 9 9 9 10
Wind_Direction
336 32 80 58 55 51 198 258 226 231 215 159 137 147 154 162 170 193 152 149 143 151 169 170 164 160 153 146 139 134 129 122 114 106 100 94 90 88 85 81 77 74 71 69 67 65 63 61 61
347 63 57 60 86 87 269 250 217 214 172 132 104 117 134 177 179 142 150 171 151 154 163 165 164 160 155 149 143 140 134 128 121 114 108 103 97 93 90 85 80 76 73 71 68 66 64 62 60
81 54 78 74 116 175 211 221 207 205 159 154 120 123 164 174 177 183 190 161 147 153 160 165 165 162 159 154 150 145 140 135 129 120 114 111 106 99 94 88 82 78 75 73 69 66 64 63 61
78 48 57 75 185 218 218 221 190 146 158 155 138 129 246 224 186 183 152 151 147 154 161 168 168 166 162 159 156 151 146 142 136 127 120 115 110 105 98 92 86 81 77 74 69 65 63 62 59
59 75 62 36 278 262 248 234 183 171 175 165 148 157 212 340 106 138 147 155 154 157 165 172 172 170 166 162 159 156 153 148 144 138 131 124 118 112 105 99 92 84 78 73 67 63 61 59 56
57 69 93 224 277 297 276 189 162 181 173 160 152 161 226 81 140 155 155 157 157 158 166 176 176 172 169 165 163 161 159 156 153 149 142 135 129 123 116 110 100 90 82 74 67 64 60 56 53
105 101 152 197 263 288 262 157 174 180 191 201 169 159 256 221 176 153 149 145 150 159 165 178 179 173 171 170 168 167 165 164 161 158 152 145 138 134 126 118 107 94 80 71 66 61 54 49 46
121 110 129 201 217 254 252 181 195 180 208 172 153 165 225 207 143 130 127 137 151 162 170 178 176 171 172 173 173 172 171 171 168 163 157 152 145 136 127 119 109 96 83 73 61 50 43 41 37
95 89 190 212 205 244 237 189 227 181 146 173 209 210 216 132 133 134 140 159 173 182 183 180 175 173 173 175 179 176 175 174 171 165 161 153 143 134 126 126 119 106 87 70 54 44 38 35 29
98 159 218 218 204 220 223 200 212 152 184 226 245 216 112 140 154 163 174 183 189 193 191 186 180 176 174 178 178 175 174 174 170 166 163 157 153 149 145 147 135 107 75 54 44 39 34 29 21
144 186 228 244 229 223 224 226 197 179 229 223 217 202 152 165 174 182 188 191 195 193 192 190 186 181 177 175 172 172 173 171 169 169 168 164 158 156 156 157 152 110 70 45 33 30 23 19 13
169 228 226 247 235 228 228 235 231 207 227 229 219 181 171 180 189 194 197 198 192 190 196 193 187 183 183 178 176 175 175 174 174 175 175 168 164 166 169 173 182 171 154 83 33 19 8 10 12
209 250 251 255 264 254 250 244 248 248 250 264 242 183 191 195 202 206 204 197 190 196 198 195 189 188 185 181 182 182 183 184 184 181 183 181 176 177 179 187 194 202 197 189 319 0 3 5 2
231 245 273 273 263 250 240 260 243 257 257 262 230 215 211 208 209 204 201 199 199 202 200 195 194 192 186 187 188 188 189 187 186 188 189 189 186 183 182 189 197 210 211 209 209 226 1 354 354
189 308 307 282 255 258 248 287 240 249 258 267 255 240 231 226 217 212 208 205 204 203 198 195 196 192 190 192 193 191 190 188 190 194 195 193 191 189 188 188 198 213 211 198 177 147 57 11 359
70 33 287 283 256 244 183 267 265 255 222 258 260 253 246 240 228 224 217 212 204 198 196 196 196 194 195 195 193 191 190 191 195 195 196 197 197 194 190 190 201 206 194 181 162 153 137 325 334
21 247 253 288 259 204 207 257 269 259 242 261 263 257 250 251 246 233 221 214 205 199 195 194 194 194 196 194 192 191 189 193 196 195 196 200 199 197 193 196 202 195 182 179 176 158 170 252 304
219 224 246 257 280 231 244 261 275 272 249 258 265 264 255 249 245 236 223 215 204 198 195 194 194 194 190 186 181 182 189 196 197 198 201 200 200 198 194 196 197 186 175 181 176 174 168 205 270
184 206 243 255 267 261 256 268 277 281 267 262 264 261 257 254 253 240 221 207 194 192 192 193 193 190 182 184 188 191 201 201 201 204 204 201 199 196 193 193 189 184 189 193 181 167 176 212 127
198 230 256 281 285 257 279 276 273 266 253 248 252 258 258 263 269 250 222 200 197 197 197 196 196 190 188 192 189 188 184 194 201 199 202 203 200 198 197 193 191 190 189 187 183 172 168 189 146
213 217 232 256 319 331 319 299 288 280 272 266 252 249 254 251 259 255 227 211 203 202 199 198 196 192 192 184 169 150 143 147 179 199 205 204 202 201 200 198 194 192 189 195 196 187 180 194 198
230 219 211 231 283 288 352 296 285 283 295 274 261 258 261 262 256 250 233 221 213 212 201 196 192 191 188 179 180 182 191 201 204 200 201 198 200 202 203 201 197 194 193 197 199 193 189 177 196
207 160 173 206 214 277 256 240 280 293 271 263 257 255 259 260 257 255 241 229 220 207 197 194 188 190 186 186 190 194 203 209 197 186 194 200 201 203 204 202 198 198 199 202 198 190 193 191 190
143 94 68 52 112 259 232 209 274 244 231 256 260 253 257 263 263 263 253 226 210 192 189 187 188 194 189 191 194 199 204 201 192 195 200 205 204 204 204 203 202 202 201 203 204 200 197 200 199
146 133 189 277 247 246 211 213 250 245 233 234 252 258 261 262 257 261 254 227 212 198 193 190 193 199 194 195 200 204 206 202 203 203 204 203 204 208 209 204 205 206 208 205 200 199 205 202 203
185 171 185 209 226 264 214 230 251 247 252 249 249 251 256 257 252 254 248 231 222 213 200 195 199 204 197 199 206 207 206 207 211 208 204 206 210 213 206 204 207 209 207 205 200 204 209 206 210
166 197 178 153 192 255 258 272 294 266 256 242 239 240 244 248 251 254 253 236 226 219 210 202 203 207 203 203 204 206 207 208 211 208 207 209 211 209 203 203 209 210 207 204 200 209 211 207 212
171 153 139 167 193 238 267 259 246 262 243 238 234 235 241 247 254 258 253 240 230 221 215 204 206 210 207 202 204 208 208 210 210 205 207 209 209 204 200 203 208 209 208 205 203 212 211 208 215
151 171 170 166 182 189 243 259 225 224 229 232 238 237 236 239 245 250 251 244 231 219 207 203 203 206 205 203 203 204 207 206 205 208 211 210 208 204 205 207 208 209 210 206 206 214 208 212 220
179 177 166 182 211 198 210 262 251 226 239 237 243 245 242 241 245 247 247 243 231 224 216 208 204 205 207 200 197 201 203 200 205 212 213 206 206 205 207 206 208 211 212 207 207 215 214 215 221
Height
1512 1512 1513 1514 1518 1532 1533 1527 1523 1522 1521 1520 1520 1521 1523 1525 1529 1532 1528 1527 1528 1530 1532 1534 1536 1538 1539 1541 1542 1542 1543 1543 1544 1544 1544 1544 1544 1544 1544 1544 1544 1544 1544 1543 1543 1543 1543 1542 1542
1512 1513 1514 1515 1527 1540 1534 1524 1522 1520 1519 1519 1520 1521 1522 1522 1523 1524 1525 1526 1528 1530 1532 1534 1536 1538 1539 1540 1542 1542 1543 1543 1544 1544 1544 1545 1545 1545 1545 1545 1544 1544 1544 1544 1544 1544 1543 1543 1543
1513 1513 1515 1518 1530 1535 1528 1520 1519 1518 1519 1519 1520 1520 1521 1522 1522 1524 1525 1526 1528 1530 1532 1534 1536 1538 1539 1541 1542 1542 1543 1544 1544 1545 1545 1545 1545 1545 1546 1545 1545 1545 1545 1545 1545 1544 1544 1544 1544
1513 1514 1516 1524 1526 1524 1520 1517 1517 1518 1519 1519 1519 1520 1521 1522 1523 1524 1525 1526 1528 1530 1532 1534 1536 1538 1539 1541 1542 1543 1543 1544 1545 1545 1546 1546 1546 1546 1546 1546 1546 1546 1546 1546 1546 1545 1545 1545 1545
1513 1514 1522 1529 1524 1519 1516 1515 1516 1517 1518 1518 1518 1519 1520 1521 1522 1523 1525 1526 1528 1530 1532 1534 1536 1538 1539 1541 1542 1543 1543 1544 1545 1545 1546 1547 1547 1547 1547 1547 1547 1547 1547 1547 1546 1546 1546 1546 1545
1514 1515 1529 1531 1523 1518 1515 1514 1516 1516 1517 1517 1518 1519 1519 1520 1521 1523 1524 1526 1528 1530 1531 1533 1536 1537 1539 1540 1541 1542 1543 1544 1545 1546 1546 1547 1547 1548 1548 1548 1548 1548 1547 1547 1547 1547 1547 1546 1546
1514 1520 1527 1525 1524 1519 1515 1514 1515 1515 1516 1516 1516 1518 1518 1519 1520 1522 1524 1526 1527 1529 1531 1533 1535 1537 1539 1540 1541 1542 1543 1544 1545 1546 1547 1547 1548 1548 1548 1548 1548 1548 1548 1548 1548 1547 1547 1547 1546
1513 1519 1524 1525 1523 1519 1514 1513 1513 1514 1514 1515 1516 1516 1516 1517 1519 1521 1523 1525 1526 1528 1530 1532 1534 1536 1537 1539 1541 1542 1543 1544 1545 1546 1547 1547 1548 1548 1548 1548 1548 1548 1548 1548 1548 1548 1547 1547 1546
1513 1522 1526 1521 1520 1516 1512 1512 1512 1512 1513 1513 1513 1514 1514 1515 1517 1519 1521 1523 1524 1526 1528 1530 1532 1534 1536 1538 1540 1541 1542 1543 1545 1545 1546 1547 1547 1548 1548 1549 1549 1549 1548 1548 1548 1548 1547 1547 1546
1512 1522 1518 1514 1513 1512 1511 1511 1511 1511 1511 1511 1511 1512 1512 1513 1514 1516 1517 1519 1521 1523 1525 1528 1530 1533 1535 1537 1538 1540 1541 1543 1544 1545 1545 1546 1547 1548 1548 1548 1548 1548 1548 1548 1548 1547 1547 1546 1546
1511 1515 1512 1511 1510 1510 1510 1510 1509 1510 1510 1508 1508 1509 1509 1511 1512 1513 1514 1516 1518 1520 1523 1525 1528 1530 1533 1535 1537 1538 1540 1541 1543 1544 1545 1545 1546 1547 1548 1548 1548 1548 1548 1548 1547 1547 1546 1546 1545
1510 1510 1510 1509 1509 1509 1509 1508 1508 1507 1506 1506 1506 1506 1506 1507 1508 1509 1511 1513 1516 1518 1520 1523 1525 1528 1530 1533 1535 1536 1538 1540 1541 1542 1543 1544 1545 1546 1547 1547 1547 1547 1547 1547 1547 1546 1546 1545 1544
1509 1508 1508 1507 1507 1507 1507 1506 1505 1502 1502 1503 1503 1503 1503 1504 1505 1507 1509 1511 1513 1515 1517 1520 1523 1525 1528 1530 1532 1534 1536 1538 1539 1541 1542 1543 1544 1545 1546 1546 1546 1547 1547 1546 1546 1546 1545 1544 1543
1506 1506 1506 1505 1505 1505 1505 1503 1503 1498 1499 1499 1499 1499 1499 1500 1501 1503 1505 1507 1509 1511 1514 1517 1519 1522 1525 1527 1530 1532 1534 1536 1537 1539 1540 1541 1543 1544 1544 1545 1545 1545 1545 1545 1545 1544 1544 1543 1542
1505 1506 1505 1503 1503 1503 1504 1503 1498 1494 1496 1495 1495 1495 1495 1496 1498 1499 1500 1502 1505 1507 1510 1513 1516 1519 1521 1524 1527 1529 1531 1533 1535 1537 1538 1539 1541 1542 1542 1543 1544 1544 1544 1544 1543 1543 1542 1542 1541
1505 1509 1511 1503 1502 1501 1506 1505 1492 1492 1492 1491 1491 1491 1491 1491 1492 1494 1496 1498 1501 1504 1506 1509 1512 1515 1517 1520 1523 1526 1528 1530 1532 1534 1536 1537 1538 1539 1540 1541 1541 1542 1542 1542 1542 1541 1541 1540 1539
1511 1514 1511 1506 1500 1500 1503 1500 1489 1489 1489 1487 1486 1485 1485 1486 1487 1489 1491 1494 1496 1499 1502 1505 1507 1510 1513 1517 1520 1523 1525 1527 1529 1531 1532 1534 1535 1536 1537 1538 1539 1540 1540 1540 1539 1539 1538 1538 1537
1513 1512 1510 1508 1501 1501 1502 1497 1487 1485 1485 1483 1481 1480 1480 1480 1482 1484 1486 1489 1491 1494 1497 1500 1503 1506 1509 1513 1516 1519 1521 1523 1525 1527 1529 1531 1532 1533 1534 1535 1536 1537 1537 1537 1537 1537 1536 1535 1534
1505 1508 1509 1505 1500 1501 1499 1494 1485 1480 1480 1478 1476 1475 1475 1475 1477 1479 1481 1484 1486 1489 1492 1495 1498 1501 1504 1507 1510 1513 1515 1518 1521 1523 1525 1527 1529 1530 1531 1532 1533 1533 1534 1534 1534 1534 1533 1533 1532
1503 1507 1507 1504 1499 1500 1499 1492 1481 1476 1475 1473 1472 1471 1470 1471 1472 1474 1476 1478 1481 1484 1486 1489 1492 1496 1499 1502 1505 1508 1511 1514 1516 1519 1521 1523 1525 1526 1527 1528 1529 1530 1530 1530 1530 1530 1530 1529 1529
1502 1504 1504 1504 1501 1499 1500 1491 1480 1473 1470 1469 1468 1467 1467 1467 1468 1469 1471 1474 1476 1479 1481 1484 1488 1491 1494 1497 1501 1504 1507 1509 1512 1513 1516 1518 1520 1522 1523 1524 1525 1526 1526 1526 1526 1527 1526 1526 1525
1500 1497 1499 1501 1505 1508 1505 1506 1483 1475 1471 1466 1464 1464 1464 1464 1465 1466 1468 1470 1472 1474 1477 1480 1483 1486 1489 1493 1496 1498 1500 1502 1505 1508 1510 1513 1515 1517 1518 1519 1520 1521 1521 1522 1522 1522 1522 1522 1521
1492 1493 1497 1500 1504 1508 1506 1508 1487 1476 1470 1463 1460 1460 1461 1462 1463 1463 1465 1466 1468 1471 1473 1476 1479 1482 1485 1488 1490 1493 1495 1498 1501 1503 1505 1508 1510 1511 1513 1514 1515 1516 1516 1517 1517 1517 1517 1517 1516
1489 1496 1501 1506 1509 1511 1502 1507 1491 1476 1466 1460 1457 1457 1458 1459 1460 1461 1462 1463 1465 1467 1469 1472 1475 1477 1480 1483 1485 1488 1490 1493 1495 1497 1499 1502 1503 1505 1507 1508 1509 1510 1511 1511 1512 1512 1511 1511 1511
1489 1499 1509 1509 1511 1506 1497 1501 1484 1464 1459 1457 1455 1454 1455 1456 1457 1458 1459 1460 1462 1464 1466 1468 1471 1473 1476 1478 1480 1482 1485 1487 1489 1491 1493 1495 1497 1499 1500 1502 1503 1504 1504 1505 1506 1505 1505 1505 1505
1485 1490 1502 1506 1506 1503 1497 1495 1471 1456 1453 1452 1451 1452 1453 1454 1455 1455 1456 1458 1459 1461 1463 1465 1467 1469 1471 1473 1475 1477 1479 1482 1483 1486 1487 1489 1491 1492 1494 1495 1496 1497 1498 1499 1499 1499 1499 1499 1498
1483 1487 1487 1498 1501 1502 1495 1485 1467 1451 1449 1449 1449 1449 1449 1450 1452 1453 1454 1456 1457 1459 1460 1461 1463 1465 1466 1468 1470 1472 1474 1476 1477 1479 1481 1483 1485 1486 1488 1489 1490 1491 1492 1492 1492 1492 1492 1492 1491
1472 1479 1490 1495 1499 1499 1492 1485 1470 1452 1448 1446 1446 1445 1446 1447 1449 1450 1452 1453 1455 1456 1457 1458 1459 1461 1462 1464 1465 1467 1468 1470 1472 1473 1475 1477 1478 1480 1481 1482 1483 1484 1484 1485 1485 1485 1485 1485 1484
1474 1478 1480 1487 1491 1494 1492 1476 1451 1446 1442 1443 1441 1441 1442 1444 1446 1448 1449 1451 1452 1453 1454 1455 1455 1457 1458 1459 1461 1462 1463 1465 1466 1467 1469 1470 1472 1473 1474 1475 1476 1477 1477 1478 1478 1478 1478 1478 1477
1462 1467 1474 1481 1485 1488 1487 1469 1439 1440 1438 1438 1437 1438 1439 1441 1443 1444 1446 1447 1448 1449 1450 1451 1452 1453 1454 1455 1456 1457 1458 1459 1460 1462 1463 1465 1466 1467 1468 1469 1469 1470 1471 1471 1471 1471 1471 1471 1470